• In Germany
  • List of Countries
  • For 7 days
  • Water Temperature
  • Satellite Maps
  • Weather Map
  • Weather Widgets
  • user-avatar
    Login

    Hourly Weather Phenian

    Today, 22 November, Wednesday

    Time Temperature Precipitation Wind Pressure Humidity
    00:00 +1°C° 0.1 mm 3 mps 763 mmHg 78%
    01:00 +2°C° 0.1 mm 3 mps 762 mmHg 80%
    02:00 +1°C° 0 mm 3 mps 762 mmHg 80%
    03:00 +1°C° 0.1 mm 3 mps 761 mmHg 82%
    04:00 +2°C° 0.1 mm 2 mps 761 mmHg 83%
    05:00 +2°C° 0.1 mm 2 mps 761 mmHg 85%
    06:00 +2°C° 0 mm 2 mps 761 mmHg 84%
    07:00 +2°C° 0 mm 2 mps 761 mmHg 83%
    08:00 +3°C° 0 mm 2 mps 761 mmHg 83%
    09:00 +2°C° 0 mm 3 mps 761 mmHg 78%
    10:00 +3°C° 0 mm 4 mps 761 mmHg 72%
    11:00 +3°C° 0 mm 5 mps 761 mmHg 67%
    12:00 +3°C° 0 mm 6 mps 761 mmHg 59%
    13:00 +2°C° 0 mm 6 mps 761 mmHg 51%
    14:00 +2°C° 0 mm 7 mps 761 mmHg 43%
    15:00 +1°C° 0 mm 6 mps 762 mmHg 45%
    16:00 0°C° 0 mm 5 mps 762 mmHg 47%
    17:00 -2°C° 0 mm 5 mps 763 mmHg 48%
    18:00 -2°C° 0 mm 4 mps 763 mmHg 48%
    19:00 -2°C° 0 mm 4 mps 763 mmHg 48%
    20:00 -3°C° 0 mm 4 mps 764 mmHg 47%
    21:00 -2°C° 0 mm 3 mps 764 mmHg 46%
    22:00 -2°C° 0 mm 2 mps 764 mmHg 44%
    23:00 0°C° 0 mm 1 mps 764 mmHg 43%

    Tomorrow, 23 November, Thursday

    Time Temperature Precipitation Wind Pressure Humidity
    00:00 0°C° 0 mm 1 mps 763 mmHg 42%
    01:00 0°C° 0 mm 1 mps 763 mmHg 41%
    02:00 0°C° 0 mm 1 mps 763 mmHg 40%
    03:00 -2°C° 0.3 mm 2 mps 762 mmHg 51%
    04:00 -3°C° 0.3 mm 2 mps 762 mmHg 62%
    05:00 -3°C° 0.3 mm 2 mps 762 mmHg 73%
    06:00 -3°C° 0.1 mm 2 mps 762 mmHg 73%
    07:00 -2°C° 0.1 mm 2 mps 762 mmHg 72%
    08:00 -2°C° 0.1 mm 2 mps 762 mmHg 71%
    09:00 -1°C° 0 mm 3 mps 762 mmHg 60%
    10:00 -1°C° 0 mm 5 mps 762 mmHg 48%
    11:00 -1°C° 0 mm 6 mps 762 mmHg 36%
    12:00 -1°C° 0 mm 7 mps 762 mmHg 36%
    13:00 -1°C° 0 mm 7 mps 762 mmHg 35%
    14:00 -1°C° 0 mm 7 mps 761 mmHg 35%
    15:00 -2°C° 0 mm 6 mps 762 mmHg 38%
    16:00 -2°C° 0 mm 4 mps 762 mmHg 41%
    17:00 -2°C° 0 mm 2 mps 762 mmHg 44%
    18:00 -2°C° 0 mm 2 mps 762 mmHg 45%
    19:00 -2°C° 0 mm 2 mps 762 mmHg 46%
    20:00 0°C° 0 mm 1 mps 763 mmHg 46%
    21:00 -2°C° 0.1 mm 2 mps 762 mmHg 52%
    22:00 -2°C° 0.1 mm 2 mps 762 mmHg 58%
    23:00 -2°C° 0.1 mm 2 mps 762 mmHg 64%

    Day after tomorrow, 24 November, Friday

    Time Temperature Precipitation Wind Pressure Humidity
    00:00 -3°C° 0.1 mm 2 mps 762 mmHg 69%
    01:00 -3°C° 0.1 mm 2 mps 762 mmHg 74%
    02:00 -3°C° 0.1 mm 2 mps 762 mmHg 79%
    03:00 -3°C° 0 mm 2 mps 762 mmHg 79%
    04:00 -1°C° 0 mm 1 mps 762 mmHg 80%
    05:00 -1°C° 0 mm 1 mps 761 mmHg 80%
    06:00 -1°C° 0.1 mm 1 mps 762 mmHg 75%
    07:00 -2°C° 0.1 mm 2 mps 762 mmHg 70%
    08:00 -2°C° 0.1 mm 3 mps 762 mmHg 65%
    09:00 -3°C° 0 mm 4 mps 763 mmHg 54%
    10:00 -3°C° 0 mm 6 mps 763 mmHg 43%
    11:00 -3°C° 0 mm 7 mps 764 mmHg 33%
    12:00 -3°C° 0 mm 7 mps 764 mmHg 33%
    13:00 -3°C° 0 mm 7 mps 764 mmHg 34%
    14:00 -4°C° 0 mm 7 mps 764 mmHg 34%
    15:00 -4°C° 0 mm 6 mps 764 mmHg 38%
    16:00 -5°C° 0 mm 5 mps 765 mmHg 41%
    17:00 -5°C° 0 mm 3 mps 765 mmHg 45%
    18:00 -4°C° 0 mm 2 mps 766 mmHg 44%
    19:00 -4°C° 0 mm 2 mps 767 mmHg 44%
    20:00 -2°C° 0 mm 1 mps 767 mmHg 43%
    21:00 -4°C° 0 mm 2 mps 767 mmHg 44%
    22:00 -4°C° 0 mm 2 mps 767 mmHg 44%
    23:00 -5°C° 0 mm 3 mps 767 mmHg 45%

    25 November, Saturday

    Time Temperature Precipitation Wind Pressure Humidity
    00:00 -5°C° 0.1 mm 3 mps 767 mmHg 47%
    01:00 -5°C° 0.1 mm 3 mps 766 mmHg 49%
    02:00 -5°C° 0.1 mm 4 mps 765 mmHg 51%
    03:00 -5°C° 0.7 mm 4 mps 765 mmHg 60%
    04:00 -4°C° 0.7 mm 4 mps 764 mmHg 69%
    05:00 -4°C° 0.7 mm 4 mps 763 mmHg 78%
    06:00 -4°C° 0.4 mm 5 mps 763 mmHg 81%
    07:00 -2°C° 0.4 mm 5 mps 763 mmHg 84%
    08:00 -1°C° 0.4 mm 5 mps 762 mmHg 87%
    09:00 +1°C° 0.4 mm 6 mps 762 mmHg 82%
    10:00 +3°C° 0.4 mm 7 mps 761 mmHg 77%
    11:00 +5°C° 0.4 mm 7 mps 760 mmHg 72%
    12:00 +5°C° 0.4 mm 7 mps 760 mmHg 72%
    13:00 +5°C° 0.4 mm 7 mps 759 mmHg 72%
    14:00 +5°C° 0.4 mm 7 mps 759 mmHg 72%
    15:00 +3°C° 0.1 mm 5 mps 760 mmHg 73%
    16:00 +3°C° 0.1 mm 4 mps 760 mmHg 75%
    17:00 +1°C° 0.1 mm 3 mps 761 mmHg 77%
    18:00 0°C° 0 mm 3 mps 762 mmHg 77%
    19:00 +1°C° 0 mm 2 mps 763 mmHg 77%
    20:00 -1°C° 0 mm 2 mps 763 mmHg 77%
    21:00 -2°C° 0 mm 2 mps 763 mmHg 76%
    22:00 0°C° 0 mm 1 mps 764 mmHg 75%
    23:00 0°C° 0 mm 1 mps 764 mmHg 74%

    26 November, Sunday

    Time Temperature Precipitation Wind Pressure Humidity
    00:00 -2°C° 0 mm 2 mps 763 mmHg 73%
    01:00 -2°C° 0 mm 2 mps 763 mmHg 72%
    02:00 -2°C° 0 mm 2 mps 762 mmHg 71%
    03:00 -2°C° 0.2 mm 3 mps 761 mmHg 75%
    04:00 -2°C° 0.2 mm 3 mps 761 mmHg 79%
    05:00 -2°C° 0.2 mm 3 mps 760 mmHg 82%
    06:00 -2°C° 0.4 mm 3 mps 761 mmHg 85%
    07:00 -2°C° 0.4 mm 3 mps 761 mmHg 87%
    08:00 -2°C° 0.4 mm 3 mps 761 mmHg 90%
    09:00 -2°C° 0.1 mm 4 mps 762 mmHg 84%
    10:00 -3°C° 0.1 mm 6 mps 762 mmHg 78%
    11:00 -2°C° 0.1 mm 7 mps 763 mmHg 72%
    12:00 -3°C° 0 mm 7 mps 763 mmHg 67%
    13:00 -4°C° 0 mm 8 mps 764 mmHg 62%
    14:00 -4°C° 0 mm 8 mps 765 mmHg 57%
    15:00 -4°C° 0 mm 7 mps 766 mmHg 59%
    16:00 -7°C° 0 mm 7 mps 767 mmHg 61%
    17:00 -8°C° 0 mm 6 mps 768 mmHg 62%
    18:00 -7°C° 0 mm 5 mps 768 mmHg 63%
    19:00 -8°C° 0 mm 5 mps 769 mmHg 63%
    20:00 -8°C° 0 mm 4 mps 770 mmHg 64%
    21:00 -8°C° 0 mm 4 mps 771 mmHg 64%
    22:00 -7°C° 0 mm 3 mps 771 mmHg 64%
    23:00 -8°C° 0 mm 3 mps 771 mmHg 64%

    27 November, Monday

    Time Temperature Precipitation Wind Pressure Humidity
    00:00 -8°C° 0 mm 3 mps 771 mmHg 65%
    01:00 -7°C° 0 mm 2 mps 771 mmHg 65%
    02:00 -7°C° 0 mm 2 mps 771 mmHg 66%
    03:00 -7°C° 0 mm 2 mps 771 mmHg 66%
    04:00 -6°C° 0 mm 1 mps 771 mmHg 67%
    05:00 -7°C° 0 mm 1 mps 771 mmHg 67%
    06:00 -6°C° 0 mm 1 mps 771 mmHg 64%
    07:00 -6°C° 0 mm 1 mps 771 mmHg 61%
    08:00 -6°C° 0 mm 1 mps 772 mmHg 58%
    09:00 -3°C° 0 mm 1 mps 771 mmHg 53%
    10:00 -2°C° 0 mm 1 mps 771 mmHg 47%
    11:00 -1°C° 0 mm 0 mps 771 mmHg 41%
    12:00 0°C° 0 mm 1 mps 770 mmHg 39%
    13:00 +1°C° 0 mm 1 mps 769 mmHg 37%
    14:00 +1°C° 0 mm 1 mps 769 mmHg 36%
    15:00 0°C° 0 mm 1 mps 768 mmHg 40%
    16:00 -1°C° 0 mm 1 mps 768 mmHg 45%
    17:00 -1°C° 0 mm 1 mps 768 mmHg 49%
    18:00 -2°C° 0 mm 1 mps 768 mmHg 50%
    19:00 -2°C° 0 mm 1 mps 768 mmHg 50%
    20:00 -4°C° 0 mm 2 mps 768 mmHg 51%
    21:00 -4°C° 0 mm 2 mps 767 mmHg 51%
    22:00 -3°C° 0 mm 2 mps 767 mmHg 52%
    23:00 -3°C° 0 mm 2 mps 767 mmHg 53%
    Show more